Regional Weather Roundup
Issued by NWS Little Rock, AR

Home | Current Version | Previous Version | Text Only | Print | Product List | Glossary Off
Versions: 1 2 3 4 5 6 7 8 9 10 11 12 13 14 15 16 17 18 19 20 21 22 23 24 25 26 27 28 29 30 31 32 33 34 35 36 37 38 39 40 41 42 43 44 45 46 47 48 49 50

000
ASUS44 KLZK 120205
RWRLZK

WEATHER ROUNDUP FOR ARKANSAS
NATIONAL WEATHER SERVICE LITTLE ROCK AR
900 PM CDT FRI JUL 11 2014

NOTE: "FAIR" INDICATES FEW OR NO CLOUDS BELOW 12,000 FEET WITH NO
SIGNIFICANT WEATHER AND/OR OBSTRUCTIONS TO VISIBILITY.

ARZ001-003-010-029-120300-
NORTHWEST ARKANSAS

CITY           SKY/WX    TMP DP  RH WIND       PRES   REMARKS
FAYETTEVILLE   CLEAR     76  72  87 CALM      30.13R
FORT SMITH     CLEAR     86  72  62 CALM      30.08R HX  92
HARRISON       CLEAR     79  69  71 SW3       30.14R
BENTONVILLE    CLEAR     81  68  65 S5        30.14R
ROGERS         CLEAR     81  68  64 S8        30.14R
SILOAM SPGS    CLEAR     81  66  61 S5        30.13R
HIGHFILL       CLEAR     79  71  76 S3        30.13R
SPRINGDALE     CLEAR     82  72  69 SE7       30.15R HX  87
$$

ARZ004-005-016-120300-
NORTH CENTRAL ARKANSAS

CITY           SKY/WX    TMP DP  RH WIND       PRES   REMARKS
BATESVILLE     CLEAR     81  73  78 CALM      30.12S HX  85
FLIPPIN          N/A     79  70  73 CALM      30.12R
MTN HOME       CLEAR     79  73  82 SE5       30.12R
$$

ARZ040-041-120300-
WEST CENTRAL ARKANSAS

CITY           SKY/WX    TMP DP  RH WIND       PRES   REMARKS
MENA           CLEAR     81  73  78 CALM      30.13S HX  85
MOUNT IDA      CLEAR     79  75  87 CALM      30.11R
$$

ARZ009-017-025-026-028-120300-
NORTHEAST ARKANSAS

CITY           SKY/WX    TMP DP  RH WIND       PRES   REMARKS
CORNING        LGT RAIN  79  73  83 SW5       30.12S
JONESBORO      CLEAR     80  72  76 SW6       30.12R
NEWPORT        CLEAR     79  77  94 SE6       30.13S
WALNUT RIDGE   CLEAR     81  72  74 S6        30.11S
BLYTHEVILLE    CLEAR     82  70  66 S3        30.13R HX  86
$$

ARZ022-023-033-042-044-120300-
CENTRAL ARKANSAS

CITY           SKY/WX    TMP DP  RH WIND       PRES   REMARKS
LITTLE ROCK    PTCLDY    81  73  76 CALM      30.12R HX  86
N LITTLE ROCK  PTCLDY    81  75  83 S5        30.12R HX  86
JACKSONVILLE   PTCLDY    80  75  85 E1        30.12R
SEARCY         CLEAR     80  75  84 W3        30.14R HX  85
HOT SPRINGS    CLEAR     83  74  74 SE3       30.12R HX  89
RUSSELLVILLE   CLEAR     83  76  79 VRB3      30.10R HX  91
CLINTON        FAIR      82  79  89 SE3       30.13R HX  93
$$

ARZ036-120300-
EAST ARKANSAS

CITY           SKY/WX    TMP DP  RH WIND       PRES   REMARKS
WEST MEMPHIS   CLEAR     79  75  87 CALM      30.12R
$$

ARZ050-053-066-070-073-120300-
SOUTHWEST ARKANSAS

CITY           SKY/WX    TMP DP  RH WIND       PRES   REMARKS
ARKADELPHIA    FAIR      81  78  90 CALM      30.11R HX  89
CAMDEN         CLEAR     81  73  78 SE6       30.10F HX  85
TEXARKANA      CLEAR     84  71  65 E3        30.10R HX  89
EL DORADO      PTCLDY    80  72  76 E6        30.12R
DE QUEEN       CLEAR     79  75  87 CALM      30.08R
$$

ARZ056-057-069-120300-
SOUTHEAST ARKANSAS

CITY           SKY/WX    TMP DP  RH WIND       PRES   REMARKS
PINE BLUFF     CLEAR     78  75  90 CALM      30.12S
MONTICELLO     CLEAR     79  74  84 CALM      30.12S

$$





USA.gov is the U.S. government's official web portal to all federal, state and local government web resources and services.